Location: Chorzow
(50.3036°N, 18.9433°E)
Time: 06:28:07
(UTC+01:00)

ISS - Visible Passes

Search period start: 19 March 2019 00:00
Search period end: 29 March 2019 00:00
Orbit: 406 x 411 km, 51.6° (Epoch: 19 March)

Date Brightness Start Highest point End Pass type
(mag) Time Alt. Az. Time Alt. Az. Time Alt. Az.
22 Mar -2.6 19:38:27 10° SSW 19:40:43 27° S 19:40:43 27° S visible
23 Mar -2.2 18:48:01 10° S 18:50:27 19° SE 18:52:21 13° ESE visible
23 Mar -2.2 20:23:21 10° WSW 20:25:08 29° WSW 20:25:08 29° WSW visible
24 Mar -3.7 19:32:23 10° SW 19:35:36 52° SSE 19:36:34 37° ESE visible
24 Mar -0.8 21:08:52 10° W 21:09:20 13° W 21:09:20 13° W visible
25 Mar -3.0 18:41:34 10° SW 18:44:37 35° SSE 18:47:40 10° E visible
25 Mar -3.5 20:17:44 10° W 20:20:37 64° WNW 20:20:37 64° WNW visible
26 Mar -3.9 19:26:37 10° WSW 19:29:55 84° SSE 19:31:46 24° ENE visible
26 Mar -1.3 21:03:17 10° W 21:04:31 21° WNW 21:04:31 21° WNW visible
27 Mar -3.7 20:12:08 10° W 20:15:26 67° N 20:15:34 66° NNE visible
28 Mar -3.7 19:20:57 10° W 19:24:16 73° N 19:26:33 18° ENE visible
28 Mar -1.7 20:57:39 10° WNW 20:59:17 27° WNW 20:59:17 27° WNW visible
